FW3157 Weather Reports


Display with metric or nautical units.
time (UTC)temp
F
wind
direction
speed
MPH
gust
MPH
rain 1hr
in
rain 24hr
in
rain mn
in
humidity
%
barometer
mb
20260505024933 56 266 0.0 0.0 0.00 0.00 0.00 68 1016.4
20260505024654 56 266 0.0 1.0 0.00 0.00 0.00 69 1016.4
20260505023930 56 267 0.0 2.0 0.00 0.00 0.00 69 1016.5
20260505023430 56 266 0.0 2.0 0.00 0.00 0.00 70 1016.5
20260505022931 56 266 0.0 2.0 0.00 0.00 0.00 69 1016.6
20260505022429 56 266 1.0 2.0 0.00 0.00 0.00 69 1016.6
20260505021926 56 266 0.0 2.0 0.00 0.00 0.00 69 1016.6
20260505021426 56 267 1.0 3.0 0.00 0.00 0.00 68 1016.6
20260505020925 56 266 1.0 3.0 0.00 0.00 0.00 66 1016.7
20260505020642 56 101 0.0 0.0 0.00 0.00 0.00 63 1016.6
20260505015923 56 101 0.0 0.0 0.00 0.00 0.00 65 1016.5
20260505015423 56 101 0.0 0.0 0.00 0.00 0.00 64 1016.6
20260505014919 56 101 0.0 1.0 0.00 0.00 0.00 63 1016.5
20260505014418 56 101 0.0 1.0 0.00 0.00 0.00 64 1016.5
20260505013919 56 101 0.0 0.0 0.00 0.00 0.00 63 1016.5
20260505013418 56 101 0.0 0.0 0.00 0.00 0.00 63 1016.6
20260505012918 56 101 0.0 1.0 0.00 0.00 0.00 63 1016.6
20260505012419 56 101 0.0 1.0 0.00 0.00 0.00 63 1016.6
20260505011918 56 101 0.0 1.0 0.00 0.00 0.00 63 1016.7
20260505011419 56 101 0.0 1.0 0.00 0.00 0.00 63 1016.9
20260505010919 56 101 0.0 2.0 0.00 0.00 0.00 63 1016.7
20260505010415 56 101 0.0 2.0 0.00 0.00 0.00 63 1016.7
20260505005914 56 101 0.0 2.0 0.00 0.00 0.00 62 1016.7
20260505005415 56 101 0.0 0.0 0.00 0.00 0.00 62 1016.9
20260505004915 56 101 0.0 0.0 0.00 0.00 0.00 62 1016.9
20260505004414 56 101 0.0 0.0 0.00 0.00 0.00 62 1016.7
20260505004141 56 101 0.0 0.0 0.00 0.00 0.00 61 1016.7
20260505003415 56 101 0.0 0.0 0.00 0.00 0.00 61 1016.9
20260505003139 56 101 0.0 0.0 0.00 0.00 0.00 62 1016.9
20260505002414 56 101 0.0 0.0 0.00 0.00 0.00 62 1016.9
20260505001908 56 101 0.0 0.0 0.00 0.00 0.00 63 1016.9
20260505001402 56 101 0.0 0.0 0.00 0.00 0.00 64 1016.9
20260505000856 57 101 0.0 0.0 0.00 0.00 0.00 63 1016.7
20260505000351 57 101 0.0 0.0 0.00 0.00 0.00 62 1016.9
20260504235844 57 101 0.0 0.0 0.00 0.00 0.00 62 1016.9
20260504235338 57 101 0.0 0.0 0.00 0.00 0.00 62 1016.7
20260504234831 57 101 0.0 0.0 0.00 0.00 0.00 61 1016.9
20260504234326 57 101 0.0 0.0 0.00 0.00 0.00 59 1016.9
20260504233821 58 101 0.0 0.0 0.00 0.00 0.00 59 1017.0
20260504233313 58 101 0.0 0.0 0.00 0.00 0.00 59 1017.0
20260504232807 58 101 0.0 0.0 0.00 0.00 0.00 58 1017.0
20260504232529 58 101 0.0 0.0 0.00 0.00 0.00 59 1017.1
20260504231756 58 101 0.0 0.0 0.00 0.00 0.00 60 1017.1
20260504231250 57 101 0.0 0.0 0.00 0.00 0.00 59 1017.1
20260504230744 58 101 0.0 0.0 0.00 0.00 0.00 59 1017.0
20260504230439 58 101 0.0 0.0 0.00 0.00 0.00 60 1017.1
20260504230322 58 101 0.0 0.0 0.00 0.00 0.00 59 1017.1
20260504225226 59 101 0.0 0.0 0.00 0.00 0.00 60 1017.1
20260504224719 59 101 0.0 0.0 0.00 0.00 0.00 56 1017.1
20260504224214 58 101 0.0 0.0 0.00 0.00 0.00 55 1017.2
20260504223707 58 101 0.0 0.0 0.00 0.00 0.00 55 1017.1
20260504223203 58 101 0.0 0.0 0.00 0.00 0.00 55 1017.2
20260504222657 59 101 0.0 1.0 0.00 0.00 0.00 54 1017.1
20260504222149 59 101 0.0 1.0 0.00 0.00 0.00 54 1017.1
20260504221644 59 101 0.0 1.0 0.00 0.00 0.00 54 1017.2
20260504221138 59 101 0.0 0.0 0.00 0.00 0.00 54 1017.2
20260504220632 59 101 0.0 2.0 0.00 0.00 0.00 54 1017.2
20260504220341 59 101 0.0 2.0 0.00 0.00 0.00 54 1017.2
20260504215619 59 103 0.0 2.0 0.00 0.00 0.00 54 1017.2
20260504215113 59 103 0.0 2.0 0.00 0.00 0.00 53 1017.3
20260504214608 59 103 0.0 2.0 0.00 0.00 0.00 54 1017.4
20260504214102 59 103 0.0 2.0 0.00 0.00 0.00 53 1017.2
20260504213821 59 103 0.0 0.0 0.00 0.00 0.00 53 1017.2
20260504213100 59 103 0.0 0.0 0.00 0.00 0.00 53 1017.2
20260504212817 60 103 0.0 1.0 0.00 0.00 0.00 54 1017.1
20260504212328 60 103 0.0 2.0 0.00 0.00 0.00 53 1017.1
20260504211558 60 103 0.0 2.0 0.00 0.00 0.00 54 1017.1
20260504211056 60 103 0.0 3.0 0.00 0.00 0.00 53 1017.1
20260504210554 60 103 0.0 3.0 0.00 0.00 0.00 53 1017.1
20260504210319 60 103 0.0 1.0 0.00 0.00 0.00 53 1017.1
20260504205550 60 103 0.0 1.0 0.00 0.00 0.00 53 1017.0
20260504205049 60 103 0.0 2.0 0.00 0.00 0.00 53 1017.1
20260504204546 60 103 1.0 2.0 0.00 0.00 0.00 53 1017.1
20260504204044 60 103 1.0 2.0 0.00 0.00 0.00 53 1017.0
20260504203543 60 103 0.0 1.0 0.00 0.00 0.00 53 1017.0
20260504203042 60 103 0.0 1.0 0.00 0.00 0.00 53 1016.9
20260504202542 60 103 0.0 1.0 0.00 0.00 0.00 53 1016.9
20260504202042 60 103 0.0 1.0 0.00 0.00 0.00 53 1016.9
20260504201542 60 103 1.0 3.0 0.00 0.00 0.00 53 1017.0
20260504201040 61 103 1.0 3.0 0.00 0.00 0.00 52 1016.9
20260504201021 61 103 0.0 2.0 0.00 0.00 0.00 52 1017.0
20260504200037 61 103 0.0 0.0 0.00 0.00 0.00 52 1016.9
20260504195536 62 103 0.0 0.0 0.00 0.00 0.00 52 1016.9
20260504195028 62 103 0.0 0.0 0.00 0.00 0.00 52 1016.7
20260504194521 62 103 0.0 0.0 0.00 0.00 0.00 52 1016.7
20260504194016 62 103 0.0 0.0 0.00 0.00 0.00 52 1016.7
20260504193733 62 103 0.0 0.0 0.00 0.00 0.00 52 1016.7
20260504193007 62 103 0.0 0.0 0.00 0.00 0.00 50 1016.6
20260504192722 62 103 0.0 0.0 0.00 0.00 0.00 51 1016.6
20260504192152 62 103 0.0 1.0 0.00 0.00 0.00 52 1016.6
20260504192036 62 103 0.0 1.0 0.00 0.00 0.00 52 1016.6
20260504190939 62 103 0.0 1.0 0.00 0.00 0.00 52 1016.6
20260504190434 63 103 0.0 2.0 0.00 0.00 0.00 52 1016.6
20260504190148 63 103 0.0 2.0 0.00 0.00 0.00 51 1016.6
20260504185422 64 103 0.0 2.0 0.00 0.00 0.00 49 1016.5
20260504184920 64 103 1.0 3.0 0.00 0.00 0.00 47 1016.5
20260504184410 64 103 2.0 4.0 0.00 0.00 0.00 46 1016.5
20260504183904 64 103 3.0 6.0 0.00 0.00 0.00 45 1016.4
20260504183358 64 104 3.0 6.0 0.00 0.00 0.00 44 1016.3
20260504182852 64 107 4.0 5.0 0.00 0.00 0.00 44 1016.3
20260504182612 64 107 3.0 6.0 0.00 0.00 0.00 44 1016.3
20260504181839 64 105 3.0 6.0 0.00 0.00 0.00 45 1016.2
20260504181334 64 123 4.0 7.0 0.00 0.00 0.00 44 1016.2
20260504180829 64 113 3.0 7.0 0.00 0.00 0.00 44 1016.2
20260504180321 64 108 2.0 5.0 0.00 0.00 0.00 45 1016.2
20260504175816 64 104 3.0 5.0 0.00 0.00 0.00 45 1016.2
20260504175309 64 89 2.0 5.0 0.00 0.00 0.00 46 1016.2
20260504174803 64 59 2.0 5.0 0.00 0.00 0.00 46 1016.2
20260504174257 65 98 3.0 7.0 0.00 0.00 0.00 48 1016.1
20260504173752 65 101 2.0 7.0 0.00 0.00 0.00 48 1016.1
20260504173246 65 111 3.0 6.0 0.00 0.00 0.00 49 1016.1
20260504172740 65 116 4.0 8.0 0.00 0.00 0.00 48 1016.0
20260504172234 66 93 3.0 8.0 0.00 0.00 0.00 47 1016.0
20260504171727 66 111 2.0 8.0 0.00 0.00 0.00 45 1016.0
20260504171420 67 122 2.0 7.0 0.00 0.00 0.00 44 1016.1
20260504171308 67 95 1.0 4.0 0.00 0.00 0.00 44 1016.0
20260504170430 67 108 3.0 7.0 0.00 0.00 0.00 44 1016.0
20260504150557 69 210 3.0 7.0 0.00 0.00 0.00 43 1016.5
20260504141040 70 206 4.0 10.0 0.00 0.00 0.00 37 1016.6
20260504140540 69 189 5.0 11.0 0.00 0.00 0.00 34 1016.9
20260504130536 69 209 4.0 9.0 0.00 0.00 0.00 37 1017.4
20260504130258 68 224 5.0 10.0 0.00 0.00 0.00 40 1017.5
20260504110455 67 230 3.0 9.0 0.00 0.00 0.00 38 1018.7
20260504100436 65 175 2.0 6.0 0.00 0.00 0.00 41 1019.2
20260504081731 59 271 3.0 6.0 0.00 0.00 0.00 44 1020.2
20260504081224 59 282 3.0 6.0 0.00 0.00 0.00 43 1020.3
20260504080719 59 251 2.0 6.0 0.00 0.00 0.00 43 1020.2
20260504080213 59 281 3.0 7.0 0.00 0.00 0.00 43 1020.2
20260504050513 54 250 1.0 10.0 0.00 0.02 0.00 61 1020.2
20260504050007 55 99 1.0 1.0 0.00 0.02 0.00 49 1020.1
20260504045726 55 99 0.0 1.0 0.00 0.02 0.00 49 1020.1
20260504044959 55 99 0.0 1.0 0.00 0.02 0.00 50 1020.0
20260504044459 55 99 0.0 1.0 0.00 0.02 0.00 52 1020.0
20260504043957 54 99 0.0 2.0 0.00 0.02 0.00 55 1020.0
20260504043457 53 99 1.0 2.0 0.00 0.02 0.00 55 1019.9
20260504043004 53 99 1.0 2.0 0.00 0.03 0.00 56 1019.9
20260504042455 53 46 0.0 1.0 0.00 0.03 0.00 57 1020.0
20260504041955 53 46 0.0 1.0 0.00 0.03 0.00 59 1020.0
20260504041455 52 46 0.0 1.0 0.00 0.03 0.00 60 1020.0
20260504040955 52 46 0.0 1.0 0.00 0.03 0.00 61 1020.0
20260504040455 51 46 0.0 0.0 0.00 0.03 0.00 63 1019.9
20260504035954 51 46 0.0 0.0 0.00 0.03 0.00 65 1019.9
20260504035455 51 46 0.0 0.0 0.00 0.03 0.00 65 1019.8
20260504035216 50 46 0.0 1.0 0.00 0.03 0.00 66 1019.8
20260504034450 50 46 0.0 1.0 0.00 0.03 0.00 66 1019.7
20260504033951 50 46 0.0 1.0 0.00 0.03 0.00 66 1019.7
20260504033450 50 46 0.0 1.0 0.00 0.03 0.00 66 1019.6
20260504033217 50 46 0.0 1.0 0.00 0.03 0.00 66 1019.6
20260504032709 50 46 0.0 1.0 0.00 0.03 0.00 65 1019.6
20260504031950 51 46 0.0 1.0 0.00 0.03 0.00 66 1019.5
20260504031450 51 46 0.0 1.0 0.00 0.03 0.00 66 1019.5
20260504030950 51 46 1.0 3.0 0.00 0.03 0.00 66 1019.5
20260504030450 51 46 1.0 3.0 0.00 0.03 0.00 66 1019.5
20260504025951 51 296 1.0 3.0 0.00 0.03 0.00 65 1019.5
20260504025709 51 296 1.0 3.0 0.00 0.03 0.00 65 1019.5